BODC Cruise Metadata Report for RRS Frederick Russell cruise FR14B/87

Introduction

This report collates information from the BODC cruise inventory and oceanographic databases. It presents

Cruise Inventory Information

Long name RRS Frederick Russell cruise FR14B/87
Short name FR14B/87
Objectives and Narrative Surveying temperature, salinity, primary production and plankton distribution on the western Scottish continental shelf.
Ship RRS Frederick Russell
Departure Port Troon, United Kingdom
Departure Date 1987-06-21
Arrival Port Dunstaffnage, United Kingdom
Arrival Date 1987-06-29
Principal Scientist(s) Anton Edwards (Scottish Marine Biological Association)
Responsible Organisation Scottish Marine Biological Association
Associated Project(s)
IHB Sea Areas Visited Inner Seas off the West Coast of Scotland
Marsden Squares Visited 181;456/181;457/181;465/181;466/181;467/181;468/181;469
Work Area Description Kilbrannan Sound/Loch Fyne/Firth of Clyde/Clyde Sea/Malin Shelf/Sound of Mull
Work Area Bounding Polygon 55N,10W; 57N,10W; 57N,5W; 55N,5W; 55N,10W
Southern Limit 55N
Northern Limit 57N
Western Limit 10W
Eastern Limit 5W

Cruise Inventory Datasets

Physical oceanography  
CTD stations Quantity: number of stations = 123
Description: CTD casts  
Optics (eg underwater light levels) Quantity: number of stations = 71
Description: irradiance meter  
Chemical oceanography  
Ammonia Quantity: number of stations = 107
Description:  
Nitrate Quantity: number of stations = 107
Description:  
Phosphate Quantity: number of stations = 107
Description: disc  
Silicate Quantity: number of stations = 107
Description:  
Biology and fisheries  
Phytoplankton Quantity: number of stations = 13
Description:  
Phytoplankton pigs (eg chlorophyll, fluorescence) Quantity: number of stations = 107
Description:  
Primary productivity Quantity: number of stations = 4
Description:  
Zooplankton Quantity: number of stations = 36
Description: survey:distribution,biomass determination,energy trnasfers,population structures  

Cruise Inventory Mooring/Buoy Operations

No information on datasets is currently available

Summary of BODC Data Holdings for the Cruise

National Oceanographic Database

Summary

# Series Instrument Description Parameters
123 CTD/STD cast Salinity of the water column
Temperature of the water column
Vertical spatial coordinates

Note: Parameter terms are taken from the BODC Parameter Discovery Vocabulary XML (SKOS)

Full List

BODC Reference Instrument Description Date/Time Location  
343027 CTD/STD cast 1987-06-26 01:32Z 55° 46' N, 6° 55' W Click for more
343039 CTD/STD cast 1987-06-26 02:44Z 55° 46' N, 7° 4' W Click for more
343040 CTD/STD cast 1987-06-26 04:13Z 55° 46' N, 7° 16' W Click for more
343052 CTD/STD cast 1987-06-26 06:39Z 55° 46' N, 7° 28' W Click for more
343064 CTD/STD cast 1987-06-26 08:53Z 55° 46' N, 7° 40' W Click for more
343076 CTD/STD cast 1987-06-26 11:08Z 55° 46' N, 8° 0' W Click for more
343088 CTD/STD cast 1987-06-26 15:53Z 56° 10' N, 9° 0' W Click for more
343107 CTD/STD cast 1987-06-26 17:16Z 56° 10' N, 9° 10' W Click for more
343119 CTD/STD cast 1987-06-26 18:35Z 56° 10' N, 9° 19' W Click for more
343120 CTD/STD cast 1987-06-26 20:02Z 56° 10' N, 9° 30' W Click for more
343132 CTD/STD cast 1987-06-27 03:41Z 56° 10' N, 8° 45' W Click for more
343144 CTD/STD cast 1987-06-27 04:38Z 56° 10' N, 8° 45' W Click for more
343156 CTD/STD cast 1987-06-27 05:36Z 56° 10' N, 8° 45' W Click for more
343168 CTD/STD cast 1987-06-27 06:37Z 56° 10' N, 8° 45' W Click for more
343181 CTD/STD cast 1987-06-27 07:36Z 56° 10' N, 8° 45' W Click for more
343193 CTD/STD cast 1987-06-27 08:38Z 56° 10' N, 8° 45' W Click for more
343200 CTD/STD cast 1987-06-27 09:38Z 56° 10' N, 8° 45' W Click for more
343212 CTD/STD cast 1987-06-27 10:37Z 56° 10' N, 8° 45' W Click for more
343224 CTD/STD cast 1987-06-27 11:37Z 56° 10' N, 8° 45' W Click for more
343236 CTD/STD cast 1987-06-27 12:42Z 56° 10' N, 8° 45' W Click for more
343248 CTD/STD cast 1987-06-27 13:39Z 56° 10' N, 8° 45' W Click for more
343261 CTD/STD cast 1987-06-27 14:39Z 56° 10' N, 8° 45' W Click for more
343273 CTD/STD cast 1987-06-27 15:45Z 56° 10' N, 8° 45' W Click for more
343285 CTD/STD cast 1987-06-27 18:11Z 56° 10' N, 8° 30' W Click for more
343297 CTD/STD cast 1987-06-27 19:48Z 56° 10' N, 8° 15' W Click for more
343304 CTD/STD cast 1987-06-27 21:19Z 56° 10' N, 8° 0' W Click for more
343316 CTD/STD cast 1987-06-27 23:27Z 56° 10' N, 7° 45' W Click for more
343328 CTD/STD cast 1987-06-28 00:39Z 56° 10' N, 7° 30' W Click for more
343341 CTD/STD cast 1987-06-28 01:54Z 56° 10' N, 7° 15' W Click for more
343353 CTD/STD cast 1987-06-28 03:06Z 56° 10' N, 7° 0' W Click for more
343365 CTD/STD cast 1987-06-28 04:21Z 56° 10' N, 6° 49' W Click for more
343377 CTD/STD cast 1987-06-28 05:55Z 56° 10' N, 6° 30' W Click for more
343389 CTD/STD cast 1987-06-28 08:27Z 56° 9' N, 6° 19' W Click for more
343390 CTD/STD cast 1987-06-28 09:28Z 56° 10' N, 6° 10' W Click for more
343408 CTD/STD cast 1987-06-28 10:38Z 56° 13' N, 6° 1' W Click for more
343421 CTD/STD cast 1987-06-28 11:54Z 56° 16' N, 6° 4' W Click for more
343433 CTD/STD cast 1987-06-28 12:44Z 56° 13' N, 6° 1' W Click for more
343445 CTD/STD cast 1987-06-28 13:55Z 56° 10' N, 5° 58' W Click for more
343457 CTD/STD cast 1987-06-28 14:51Z 56° 7' N, 5° 55' W Click for more
343469 CTD/STD cast 1987-06-28 16:27Z 56° 4' N, 5° 52' W Click for more
343470 CTD/STD cast 1987-06-28 18:01Z 56° 16' N, 5° 50' W Click for more
343482 CTD/STD cast 1987-06-28 19:23Z 56° 19' N, 5° 40' W Click for more
343494 CTD/STD cast 1987-06-28 20:44Z 56° 28' N, 5° 30' W Click for more
343501 CTD/STD cast 1987-06-28 22:45Z 56° 31' N, 5° 46' W Click for more
343513 CTD/STD cast 1987-06-28 23:59Z 56° 35' N, 5° 58' W Click for more
343525 CTD/STD cast 1987-06-29 00:52Z 56° 40' N, 6° 7' W Click for more
343537 CTD/STD cast 1987-06-29 02:14Z 56° 40' N, 6° 16' W Click for more
343549 CTD/STD cast 1987-06-29 09:41Z 56° 29' N, 5° 37' W Click for more
343550 CTD/STD cast 1987-06-29 10:20Z 56° 30' N, 5° 36' W Click for more
343562 CTD/STD cast 1987-06-29 10:48Z 56° 31' N, 5° 34' W Click for more
343574 CTD/STD cast 1987-06-29 11:07Z 56° 31' N, 5° 33' W Click for more
343586 CTD/STD cast 1987-06-29 11:22Z 56° 32' N, 5° 32' W Click for more
343598 CTD/STD cast 1987-06-29 11:43Z 56° 33' N, 5° 30' W Click for more
343605 CTD/STD cast 1987-06-29 12:03Z 56° 33' N, 5° 29' W Click for more
343617 CTD/STD cast 1987-06-29 12:24Z 56° 34' N, 5° 28' W Click for more
343629 CTD/STD cast 1987-06-29 12:46Z 56° 36' N, 5° 27' W Click for more
343630 CTD/STD cast 1987-06-29 13:04Z 56° 36' N, 5° 25' W Click for more
343642 CTD/STD cast 1987-06-29 13:23Z 56° 37' N, 5° 24' W Click for more
343654 CTD/STD cast 1987-06-29 14:03Z 56° 38' N, 5° 22' W Click for more
343666 CTD/STD cast 1987-06-29 14:26Z 56° 39' N, 5° 21' W Click for more
349846 CTD/STD cast 1987-06-21 13:07Z 55° 27' N, 5° 28' W Click for more
349858 CTD/STD cast 1987-06-21 14:30Z 55° 31' N, 5° 27' W Click for more
349871 CTD/STD cast 1987-06-21 15:53Z 55° 34' N, 5° 25' W Click for more
349883 CTD/STD cast 1987-06-21 17:50Z 55° 37' N, 5° 25' W Click for more
349895 CTD/STD cast 1987-06-21 19:13Z 55° 42' N, 5° 21' W Click for more
349902 CTD/STD cast 1987-06-21 21:06Z 55° 45' N, 5° 16' W Click for more
349914 CTD/STD cast 1987-06-21 22:19Z 55° 46' N, 5° 13' W Click for more
349926 CTD/STD cast 1987-06-21 23:41Z 55° 49' N, 5° 10' W Click for more
349938 CTD/STD cast 1987-06-22 00:49Z 55° 49' N, 5° 16' W Click for more
349951 CTD/STD cast 1987-06-22 01:58Z 55° 54' N, 5° 22' W Click for more
349963 CTD/STD cast 1987-06-22 11:05Z 55° 27' N, 5° 28' W Click for more
349975 CTD/STD cast 1987-06-22 13:08Z 55° 42' N, 5° 21' W Click for more
349987 CTD/STD cast 1987-06-22 16:20Z 55° 54' N, 5° 22' W Click for more
349999 CTD/STD cast 1987-06-22 18:33Z 55° 58' N, 5° 22' W Click for more
350000 CTD/STD cast 1987-06-22 21:23Z 55° 42' N, 5° 9' W Click for more
350012 CTD/STD cast 1987-06-22 22:11Z 55° 42' N, 5° 4' W Click for more
350024 CTD/STD cast 1987-06-23 00:24Z 55° 54' N, 5° 4' W Click for more
350036 CTD/STD cast 1987-06-23 02:44Z 55° 49' N, 4° 58' W Click for more
350048 CTD/STD cast 1987-06-23 03:23Z 55° 49' N, 4° 55' W Click for more
350061 CTD/STD cast 1987-06-23 06:21Z 55° 39' N, 4° 55' W Click for more
350073 CTD/STD cast 1987-06-23 07:25Z 55° 37' N, 5° 0' W Click for more
350085 CTD/STD cast 1987-06-23 08:33Z 55° 36' N, 5° 4' W Click for more
350097 CTD/STD cast 1987-06-23 09:29Z 55° 34' N, 4° 58' W Click for more
350104 CTD/STD cast 1987-06-23 11:58Z 55° 28' N, 5° 1' W Click for more
350116 CTD/STD cast 1987-06-23 13:31Z 55° 28' N, 4° 55' W Click for more
350128 CTD/STD cast 1987-06-23 14:24Z 55° 28' N, 4° 49' W Click for more
350141 CTD/STD cast 1987-06-23 15:18Z 55° 28' N, 4° 43' W Click for more
350153 CTD/STD cast 1987-06-23 17:23Z 55° 22' N, 4° 51' W Click for more
350165 CTD/STD cast 1987-06-23 18:18Z 55° 22' N, 4° 58' W Click for more
350177 CTD/STD cast 1987-06-23 20:54Z 55° 22' N, 5° 4' W Click for more
350189 CTD/STD cast 1987-06-23 21:39Z 55° 19' N, 5° 7' W Click for more
350190 CTD/STD cast 1987-06-23 23:42Z 55° 13' N, 4° 58' W Click for more
350208 CTD/STD cast 1987-06-24 01:10Z 55° 13' N, 5° 3' W Click for more
350221 CTD/STD cast 1987-06-24 02:02Z 55° 16' N, 5° 13' W Click for more
350233 CTD/STD cast 1987-06-24 02:51Z 55° 19' N, 5° 19' W Click for more
350245 CTD/STD cast 1987-06-24 04:49Z 55° 22' N, 5° 27' W Click for more
350257 CTD/STD cast 1987-06-24 06:08Z 55° 15' N, 5° 30' W Click for more
350269 CTD/STD cast 1987-06-24 07:25Z 55° 12' N, 5° 27' W Click for more
350270 CTD/STD cast 1987-06-24 09:39Z 55° 9' N, 5° 19' W Click for more
350282 CTD/STD cast 1987-06-24 10:37Z 55° 7' N, 5° 13' W Click for more
350294 CTD/STD cast 1987-06-24 11:29Z 55° 6' N, 5° 7' W Click for more
350301 CTD/STD cast 1987-06-24 12:17Z 55° 4' N, 5° 4' W Click for more
350313 CTD/STD cast 1987-06-24 14:12Z 55° 4' N, 5° 16' W Click for more
350325 CTD/STD cast 1987-06-24 15:25Z 54° 57' N, 5° 13' W Click for more
350337 CTD/STD cast 1987-06-24 17:27Z 55° 1' N, 5° 19' W Click for more
350349 CTD/STD cast 1987-06-24 18:43Z 54° 57' N, 5° 30' W Click for more
350350 CTD/STD cast 1987-06-24 20:21Z 55° 4' N, 5° 25' W Click for more
350362 CTD/STD cast 1987-06-24 22:10Z 55° 9' N, 5° 31' W Click for more
350374 CTD/STD cast 1987-06-24 23:01Z 55° 13' N, 5° 37' W Click for more
350386 CTD/STD cast 1987-06-25 02:09Z 55° 16' N, 5° 28' W Click for more
350398 CTD/STD cast 1987-06-25 04:06Z 55° 13' N, 5° 46' W Click for more
350405 CTD/STD cast 1987-06-25 04:38Z 55° 15' N, 5° 46' W Click for more
350417 CTD/STD cast 1987-06-25 06:15Z 55° 13' N, 5° 52' W Click for more
350429 CTD/STD cast 1987-06-25 08:39Z 55° 10' N, 5° 55' W Click for more
350430 CTD/STD cast 1987-06-25 12:08Z 55° 13' N, 6° 45' W Click for more
350442 CTD/STD cast 1987-06-25 13:05Z 55° 19' N, 6° 40' W Click for more
350454 CTD/STD cast 1987-06-25 14:09Z 55° 22' N, 6° 37' W Click for more
350466 CTD/STD cast 1987-06-25 16:22Z 55° 28' N, 6° 33' W Click for more
350478 CTD/STD cast 1987-06-25 17:47Z 55° 33' N, 6° 30' W Click for more
350491 CTD/STD cast 1987-06-25 20:44Z 55° 37' N, 6° 25' W Click for more
350509 CTD/STD cast 1987-06-25 21:36Z 55° 42' N, 6° 22' W Click for more
350510 CTD/STD cast 1987-06-25 23:19Z 55° 46' N, 6° 37' W Click for more
350522 CTD/STD cast 1987-06-26 00:11Z 55° 46' N, 6° 46' W Click for more

Project Database

No data currently held for this cruise in the BODC Project Database

References

Track Charts

Track Chart

Track Chart

Reports

Cruise Report